Location: Cincinnati Observatory Center
(39.1389°N, 84.4225°W)
Time: 12:39:35
(UTC-04:00)

Daily predictions for brighter satellites

Satellite Brightness Start Highest point End
(mag) Time Altitude Azimuth Time Altitude Azimuth Time Altitude Azimuth
Cosmos 1025 Rocket 3.7 21:26:35 10° SSE 21:30:27 35° E 21:34:21 10° NNE
CZ-4B DEB 3.3 21:29:21 10° SE 21:32:07 37° ENE 21:34:55 10° N
Cosmos 405 3.5 21:34:34 10° N 21:38:00 43° ENE 21:41:22 10° SSE
USA 186 2.8 21:37:20 10° S 21:40:22 44° W 21:43:19 10° NNW
COSMOS 2487 4.1 21:38:04 10° SE 21:40:32 18° E 21:43:00 10° NE
Cosmos 1666 2.6 21:37:18 10° N 21:41:03 83° E 21:44:48 10° S
CENTAUR R/B 3.7 21:34:33 10° NW 21:42:23 57° WSW 21:50:34 10° SSE
Meteor 2-9 Rocket 4.2 21:40:11 10° N 21:45:43 70° E 21:51:22 10° SSE
ERS-1 Rocket 3.7 21:41:29 10° SE 21:46:04 38° ENE 21:50:42 10° N
SJ-11-01 4.3 21:42:02 10° SSE 21:46:43 78° ENE 21:51:26 10° N
Cosmos 1833 Rocket 3.8 21:43:50 10° SSE 21:48:09 23° E 21:52:30 10° NE
Cosmos 1371 Rocket 4.2 21:43:59 10° NNW 21:49:15 60° ENE 21:54:08 12° SSE
Cosmos 1238 Rocket 4.1 21:43:23 10° S 21:50:07 76° E 21:56:30 10° N
ISS -1.3 21:47:22 10° W 21:50:10 25° NNW 21:52:58 10° NNE
OAO 2 Rocket 3.7 21:45:46 10° W 21:50:30 48° S 21:54:39 13° ESE
Cosmos 2058 Rocket 4.4 21:52:19 10° NNE 21:55:55 24° ENE 21:58:30 15° ESE
Cosmos 2074 Rocket 4.3 21:50:24 10° N 21:56:38 72° W 22:02:53 10° S
Aureole 3 Rocket 4.1 21:52:52 10° SSW 21:58:52 60° W 22:03:09 10° N
Cosmos 1610 Rocket 4.5 21:55:53 10° N 22:02:10 85° E 22:08:19 10° S
Cosmos 2184 Rocket 4.4 21:56:00 10° NNW 22:02:17 68° W 22:08:28 10° S
Meteor 1-29 3.2 21:59:20 10° N 22:02:41 67° WNW 22:06:01 10° SSW
Cosmos 2181 Rocket 4.5 21:58:39 10° SSE 22:04:35 43° E 22:10:27 10° NNE
ASTEX 1 3.3 22:01:03 10° SSE 22:05:57 79° E 22:10:50 10° N
Cosmos 1939 Rocket 3.3 22:02:21 10° S 22:06:10 59° W 22:10:00 10° NNW
Cosmos 1437 Rocket 2.8 22:02:39 10° N 22:06:29 59° E 22:09:19 17° SSE
Meteor 2-4 Rocket 4.2 22:01:18 10° SSW 22:06:55 65° W 22:12:44 10° N
Intercosmos 24 3.6 22:04:57 10° N 22:08:37 72° E 22:11:24 16° SSE
Cosmos 1515 3.9 22:09:19 15° SSE 22:12:17 50° E 22:15:59 10° NNE
H-2A R/B 4.4 22:12:40 10° ENE 22:13:40 11° ENE 22:14:40 10° NE
Resurs 01 Rocket 4.3 22:11:38 10° SW 22:14:28 17° W 22:17:19 10° NW
PSLV R/B 3.9 22:12:54 10° W 22:15:49 36° SSW 22:16:58 26° SSE
Hubble Space Telescope 2.8 22:15:47 10° SSW 22:17:03 13° S 22:17:03 13° S
Meteor 2-19 Rocket 4.5 22:15:36 10° N 22:21:43 71° E 22:26:34 17° SSE
Cosmos 1980 Rocket 3.9 22:18:25 10° N 22:22:32 20° NE 22:25:49 13° E
Cosmos 962 Rocket 4.5 22:17:21 10° N 22:23:35 70° E 22:28:18 18° SSE
ARGOS 3.5 22:20:51 21° SE 22:24:20 51° ENE 22:29:35 10° N
Cosmos 1624 Rocket 4.3 22:26:32 10° NNW 22:31:47 68° WSW 22:35:41 18° S
TELKOM 3 4.2 22:30:43 10° NW 22:32:59 40° NNE 22:33:54 30° E
Cosmos 2228 3.2 22:29:53 10° N 22:34:05 51° E 22:35:49 31° SE
Cosmos 921 Rocket 3.0 22:30:15 10° NNW 22:34:44 85° ENE 22:37:02 28° SSE
Tiangong 2 2.3 22:34:17 10° WNW 22:37:20 40° N 22:39:21 18° ENE
MetOp-B 4.1 22:36:14 22° SSE 22:39:48 89° ENE 22:45:11 10° NNW
NOAA 11 4.2 22:35:59 20° S 22:39:50 84° WSW 22:45:18 10° NNW
H-2A R/B 2.5 22:38:01 27° ESE 22:40:13 43° ENE 22:44:59 10° N
SL-8 Rocket 4.2 22:34:28 10° N 22:40:39 58° E 22:44:11 26° SSE
Cosmos 2366 rocket 4.3 22:41:37 10° N 22:47:32 47° ENE 22:50:16 29° SE
CZ-3A R/B 2.2 22:47:05 10° WSW 22:50:13 29° NW 22:51:31 13° NNE
Cosmos 2056 Rocket 4.2 22:46:29 10° NNW 22:51:24 46° WSW 22:54:40 20° SSW
Cosmos 1892 Rocket 4.2 22:49:00 11° SSW 22:53:06 54° W 22:57:25 10° N
Lacrosse 5 rocket 4.2 22:52:54 10° N 22:55:02 13° NNE 22:57:08 10° NE
Terra 2.8 22:55:30 27° E 22:56:45 31° ENE 23:00:56 10° N
Meteor 1-4 Rocket 2.5 22:54:29 10° N 22:58:00 58° E 22:58:16 56° ESE
Cosmos 1602 Rocket 3.7 22:57:24 44° SE 22:58:16 52° E 23:02:28 10° NNE
Cosmos 2082 Rocket 2.3 22:53:04 10° SSW 22:58:45 80° WNW 23:04:26 10° NNE
Cosmos 2278 4.0 22:56:41 10° NNW 23:02:18 60° WSW 23:05:10 28° S
Cosmos 1269 Rocket 4.2 23:01:07 38° SSE 23:02:36 49° ESE 23:07:41 10° NNE
Cosmos 1420 Rocket 4.1 23:02:11 10° NNW 23:07:24 62° ENE 23:08:59 42° SE
Cosmos 1959 Rocket 4.5 23:02:31 10° N 23:08:55 81° E 23:11:51 34° SSE
SPOT 5 3.0 23:07:20 35° SSW 23:08:58 58° W 23:13:17 10° NNW
Cosmos 1048 Rocket 4.0 23:08:11 42° SSE 23:09:41 59° ESE 23:14:47 10° NNE
DMSP B5D2-2 4.1 23:05:09 10° NNE 23:10:23 60° E 23:11:58 42° SSE
deb Chang Zheng 4 4.2 23:10:47 10° NNE 23:14:27 37° E 23:14:27 37° E
Cosmos 1656 3.8 23:11:01 10° NNW 23:16:25 65° WSW 23:18:28 38° S
Meteor 1-22 Rocket 4.0 23:12:21 10° N 23:17:42 76° E 23:19:21 46° SSE
SL-08 RB Rocket 4.1 23:16:19 37° SSW 23:17:47 57° W 23:22:12 10° NNW
Cosmos 1697 Rocket 2.6 23:12:10 10° NNW 23:17:48 89° ENE 23:19:38 45° SSE
Cosmos 1809 Rocket 4.4 23:12:43 10° N 23:18:50 90° W 23:21:21 38° S
Lacrosse 5 3.7 23:25:30 17° ENE 23:25:30 17° ENE 23:26:54 10° ENE
Cosmos 1452 Rocket 3.8 23:18:03 10° NNW 23:23:16 61° WSW 23:25:00 40° SSW
CARTOSAT-1 3.6 23:24:03 57° E 23:24:24 59° ENE 23:28:39 10° N
Timation 2 Rocket 3.9 23:20:08 15° SSW 23:25:30 85° WNW 23:31:42 10° NNE
SL-08 R/B 4.4 23:20:30 10° N 23:26:38 84° W 23:29:03 40° S
ISS -0.2 23:27:04 10° NNW 23:27:35 10° N 23:28:05 10° N
SL-16 R/B 3.7 23:23:07 10° N 23:27:39 24° NE 23:29:33 20° E
Iridium 2 4.4 23:24:38 10° N 23:27:42 41° NE 23:27:42 41° NE
Cosmos 2218 Rocket 4.2 23:24:51 10° NNW 23:30:58 68° W 23:33:41 35° SSW
Cosmos 1833 Rocket 3.7 23:26:22 10° SW 23:31:44 45° WNW 23:37:08 10° N
SPOT 1/Viking Rocket 4.0 23:30:08 36° SSW 23:31:57 53° W 23:37:00 10° NNW
IGS 5A 3.4 23:32:35 69° E 23:32:38 69° ENE 23:36:47 10° N
Meteor 2-16 Rocket 4.4 23:30:14 10° N 23:36:24 80° E 23:38:10 49° SSE
SL-24 R/B - RUBIN 2 4.5 23:33:05 21° SSW 23:37:46 85° ESE 23:44:22 10° NNE
ATLAS CENTAUR R/B 3.3 23:35:53 10° N 23:38:18 17° NE 23:38:30 16° NE
Cosmos 1842 3.4 23:38:51 64° NNE 23:38:51 64° NNE 23:42:17 10° N
SL-19 R/B 3.9 23:33:55 10° NNE 23:39:14 77° ESE 23:40:12 59° S
Cosmos 1271 Rocket 2.9 23:37:05 10° N 23:40:35 67° NNE 23:40:35 67° NNE
TRAILBLAZER 4.4 23:39:04 10° NNW 23:43:42 89° WSW 23:43:52 84° SSE
Cosmos 2251 Rocket 4.4 23:47:56 34° E 23:47:56 34° E 23:52:06 10° NE
H-2A R/B 2.1 23:48:48 76° SW 23:49:00 78° WSW 23:53:33 10° NNW
Cosmos 1544 3.9 23:46:49 10° N 23:49:33 49° N 23:49:33 49° N
Cosmos 1812 Rocket 3.9 23:48:51 10° NNW 23:53:15 58° W 23:53:29 57° WSW
